| time (UTC) | temp C | wind direction | speed KPH | gust KPH | rain 1hr cm | rain 24hr cm | rain mn cm | humidity % | barometer mb |
| 20260508043028 | 8 | 0 | 0.0 | 0.0 | 0.00 | 0.00 | 0.00 | 83 | 1010.0 |
| 20260508041530 | 7 | 0 | 0.0 | 0.0 | 0.00 | 0.00 | 0.00 | 83 | 1009.9 |
| 20260508040029 | 7 | 0 | 0.0 | 0.0 | 0.00 | 0.00 | 0.00 | 83 | 1009.8 |
| 20260508034539 | 7 | 0 | 0.0 | 0.0 | 0.00 | 0.00 | 0.00 | 82 | 1009.8 |
| 20260508033031 | 7 | 0 | 0.0 | 0.0 | 0.00 | 0.00 | 0.00 | 81 | 1009.8 |
| 20260508031536 | 7 | 0 | 0.0 | 0.0 | 0.00 | 0.00 | 0.00 | 80 | 1009.6 |
| 20260508030028 | 8 | 0 | 0.0 | 0.0 | 0.00 | 0.00 | 0.00 | 78 | 1009.7 |
| 20260508024550 | 8 | 0 | 0.0 | 0.0 | 0.00 | 0.00 | 0.00 | 77 | 1009.6 |
| 20260508023030 | 8 | 0 | 0.0 | 0.0 | 0.00 | 0.00 | 0.00 | 75 | 1009.6 |
| 20260508021528 | 8 | 0 | 0.0 | 0.0 | 0.00 | 0.00 | 0.00 | 73 | 1009.8 |
| 20260508020029 | 9 | 0 | 0.0 | 0.0 | 0.00 | 0.00 | 0.00 | 69 | 1009.8 |
| 20260508014530 | 9 | 0 | 0.0 | 0.0 | 0.00 | 0.00 | 0.00 | 67 | 1009.6 |
| 20260508013032 | 10 | 0 | 0.0 | 0.0 | 0.00 | 0.00 | 0.00 | 65 | 1009.4 |
| 20260508011531 | 10 | 0 | 0.0 | 0.0 | 0.00 | 0.00 | 0.00 | 65 | 1009.3 |
| 20260508010037 | 11 | 0 | 0.0 | 0.0 | 0.00 | 0.00 | 0.00 | 60 | 1009.2 |
| 20260508004541 | 11 | 0 | 0.0 | 0.0 | 0.00 | 0.00 | 0.00 | 58 | 1008.8 |
| 20260508003027 | 12 | 0 | 0.0 | 0.0 | 0.00 | 0.00 | 0.00 | 54 | 1008.9 |
| 20260508001537 | 12 | 0 | 0.0 | 0.0 | 0.00 | 0.00 | 0.00 | 46 | 1008.6 |
| 20260508000031 | 13 | 0 | 0.0 | 0.0 | 0.00 | 0.00 | 0.00 | 41 | 1008.5 |
| 20260507234533 | 14 | 0 | 0.0 | 0.0 | 0.00 | 0.00 | 0.00 | 38 | 1008.4 |
| 20260507233030 | 15 | 0 | 0.0 | 0.0 | 0.00 | 0.00 | 0.00 | 36 | 1008.4 |
| 20260507231527 | 15 | 0 | 0.0 | 0.0 | 0.00 | 0.00 | 0.00 | 45 | 1008.2 |
| 20260507230028 | 16 | 0 | 0.0 | 1.6 | 0.00 | 0.00 | 0.00 | 33 | 1008.1 |
| 20260507224530 | 16 | 0 | 0.0 | 3.2 | 0.00 | 0.00 | 0.00 | 42 | 1008.1 |
| 20260507223029 | 16 | 0 | 0.0 | 3.2 | 0.00 | 0.00 | 0.00 | 43 | 1008.1 |
| 20260507221536 | 16 | 0 | 0.0 | 1.6 | 0.00 | 0.00 | 0.00 | 42 | 1008.3 |
| 20260507220028 | 16 | 0 | 0.0 | 1.6 | 0.00 | 0.00 | 0.00 | 33 | 1008.2 |
| 20260507214528 | 16 | 0 | 0.0 | 3.2 | 0.00 | 0.00 | 0.00 | 31 | 1008.4 |
| 20260507213031 | 17 | 0 | 0.0 | 6.4 | 0.00 | 0.00 | 0.00 | 39 | 1008.3 |
| 20260507211529 | 19 | 303 | 0.0 | 8.0 | 0.00 | 0.00 | 0.00 | 37 | 1008.2 |
| 20260507210028 | 19 | 0 | 0.0 | 9.7 | 0.00 | 0.00 | 0.00 | 24 | 1008.1 |
| 20260507204529 | 19 | 246 | 1.6 | 12.9 | 0.00 | 0.00 | 0.00 | 34 | 1007.9 |
| 20260507203039 | 18 | 329 | 3.2 | 14.5 | 0.00 | 0.00 | 0.00 | 37 | 1008.0 |
| 20260507201530 | 19 | 267 | 0.0 | 14.5 | 0.00 | 0.00 | 0.00 | 38 | 1008.0 |
| 20260507200030 | 19 | 300 | 1.6 | 11.3 | 0.00 | 0.00 | 0.00 | 35 | 1008.2 |
| 20260507194531 | 18 | 113 | 0.0 | 8.0 | 0.00 | 0.00 | 0.00 | 38 | 1008.3 |
| 20260507193030 | 18 | 288 | 1.6 | 11.3 | 0.00 | 0.00 | 0.00 | 40 | 1008.5 |
| 20260507191532 | 18 | 222 | 0.0 | 8.0 | 0.00 | 0.00 | 0.00 | 38 | 1008.6 |
| 20260507190030 | 18 | 284 | 1.6 | 12.9 | 0.00 | 0.00 | 0.00 | 41 | 1008.8 |
| 20260507184531 | 18 | 289 | 1.6 | 8.0 | 0.00 | 0.00 | 0.00 | 40 | 1009.1 |
| 20260507183028 | 18 | 317 | 1.6 | 12.9 | 0.00 | 0.00 | 0.00 | 41 | 1009.4 |
| 20260507181528 | 18 | 289 | 0.0 | 8.0 | 0.00 | 0.00 | 0.00 | 41 | 1009.3 |
| 20260507180028 | 17 | 76 | 0.0 | 4.8 | 0.00 | 0.00 | 0.00 | 45 | 1009.4 |
| 20260507174538 | 17 | 324 | 3.2 | 12.9 | 0.00 | 0.00 | 0.00 | 37 | 1009.7 |
| 20260507173052 | 17 | 207 | 1.6 | 11.3 | 0.00 | 0.00 | 0.00 | 48 | 1010.0 |
| 20260507171530 | 16 | 302 | 3.2 | 14.5 | 0.00 | 0.00 | 0.00 | 47 | 1010.3 |
| 20260507170032 | 16 | 208 | 1.6 | 11.3 | 0.00 | 0.00 | 0.00 | 43 | 1010.4 |
| 20260507164533 | 15 | 0 | 0.0 | 16.1 | 0.00 | 0.00 | 0.00 | 46 | 1010.9 |
| 20260507163029 | 16 | 0 | 0.0 | 6.4 | 0.00 | 0.00 | 0.00 | 52 | 1010.8 |
| 20260507161540 | 16 | 296 | 1.6 | 8.0 | 0.00 | 0.00 | 0.00 | 50 | 1011.2 |
| 20260507160028 | 15 | 150 | 0.0 | 11.3 | 0.00 | 0.00 | 0.00 | 55 | 1011.3 |
| 20260507154528 | 15 | 0 | 1.6 | 11.3 | 0.00 | 0.00 | 0.00 | 56 | 1011.3 |
| 20260507153029 | 15 | 255 | 1.6 | 11.3 | 0.00 | 0.00 | 0.00 | 52 | 1011.5 |
| 20260507151530 | 15 | 251 | 3.2 | 11.3 | 0.00 | 0.00 | 0.00 | 55 | 1011.8 |
| 20260507150038 | 14 | 309 | 1.6 | 12.9 | 0.00 | 0.00 | 0.00 | 61 | 1011.8 |
| 20260507144531 | 14 | 343 | 0.0 | 8.0 | 0.00 | 0.00 | 0.00 | 63 | 1012.0 |
| 20260507143030 | 13 | 285 | 0.0 | 11.3 | 0.00 | 0.00 | 0.00 | 67 | 1012.2 |
| 20260507141545 | 13 | 0 | 0.0 | 8.0 | 0.00 | 0.00 | 0.00 | 63 | 1012.2 |
| 20260507140029 | 12 | 0 | 1.6 | 9.7 | 0.00 | 0.00 | 0.00 | 67 | 1012.2 |
| 20260507134529 | 11 | 309 | 0.0 | 8.0 | 0.00 | 0.00 | 0.00 | 81 | 1012.1 |
| 20260507133045 | 11 | 309 | 1.6 | 6.4 | 0.00 | 0.00 | 0.00 | 85 | 1012.2 |
| 20260507131530 | 10 | 345 | 0.0 | 3.2 | 0.00 | 0.00 | 0.00 | 79 | 1012.2 |
| 20260507130034 | 10 | 0 | 0.0 | 4.8 | 0.00 | 0.00 | 0.00 | 81 | 1012.2 |
| 20260507124529 | 10 | 0 | 0.0 | 4.8 | 0.00 | 0.00 | 0.00 | 82 | 1012.2 |
| 20260507123036 | 10 | 0 | 0.0 | 0.0 | 0.00 | 0.00 | 0.00 | 84 | 1012.2 |
| 20260507121530 | 9 | 0 | 0.0 | 1.6 | 0.00 | 0.00 | 0.00 | 84 | 1012.3 |
| 20260507120034 | 9 | 0 | 0.0 | 0.0 | 0.00 | 0.00 | 0.00 | 84 | 1012.3 |
| 20260507114529 | 9 | 0 | 0.0 | 1.6 | 0.00 | 0.00 | 0.00 | 85 | 1012.0 |
| 20260507113034 | 9 | 298 | 0.0 | 1.6 | 0.00 | 0.00 | 0.00 | 85 | 1012.0 |
| 20260507111530 | 9 | 0 | 0.0 | 1.6 | 0.00 | 0.00 | 0.00 | 86 | 1011.9 |
| 20260507110039 | 9 | 0 | 0.0 | 1.6 | 0.00 | 0.00 | 0.00 | 86 | 1011.5 |
| 20260507104531 | 9 | 0 | 0.0 | 0.0 | 0.00 | 0.00 | 0.00 | 86 | 1011.6 |
| 20260507101536 | 8 | 0 | 0.0 | 0.0 | 0.00 | 0.00 | 0.00 | 86 | 1010.8 |
| 20260507100035 | 8 | 0 | 0.0 | 0.0 | 0.00 | 0.00 | 0.00 | 86 | 1010.8 |
| 20260507094536 | 8 | 0 | 0.0 | 1.6 | 0.00 | 0.00 | 0.00 | 85 | 1010.8 |
| 20260507093030 | 8 | 0 | 0.0 | 0.0 | 0.00 | 0.00 | 0.00 | 85 | 1010.7 |
| 20260507091534 | 8 | 0 | 0.0 | 3.2 | 0.00 | 0.00 | 0.00 | 85 | 1010.4 |
| 20260507090031 | 8 | 0 | 0.0 | 1.6 | 0.00 | 0.00 | 0.00 | 85 | 1010.4 |
| 20260507084533 | 8 | 0 | 0.0 | 1.6 | 0.00 | 0.00 | 0.00 | 85 | 1010.4 |
| 20260507083030 | 8 | 0 | 0.0 | 1.6 | 0.00 | 0.00 | 0.00 | 85 | 1010.3 |
| 20260507081536 | 8 | 0 | 0.0 | 1.6 | 0.00 | 0.00 | 0.00 | 85 | 1010.6 |
| 20260507080030 | 8 | 0 | 0.0 | 4.8 | 0.00 | 0.00 | 0.00 | 84 | 1010.9 |
| 20260507074530 | 9 | 0 | 0.0 | 9.7 | 0.00 | 0.00 | 0.00 | 84 | 1010.9 |
| 20260507073031 | 9 | 0 | 0.0 | 11.3 | 0.00 | 0.00 | 0.00 | 84 | 1011.2 |
| 20260507071530 | 9 | 304 | 0.0 | 8.0 | 0.00 | 0.00 | 0.00 | 84 | 1010.8 |
| 20260507070040 | 9 | 0 | 0.0 | 9.7 | 0.00 | 0.00 | 0.00 | 84 | 1010.8 |
| 20260507064527 | 10 | 333 | 0.0 | 8.0 | 0.00 | 0.00 | 0.00 | 84 | 1010.9 |
| 20260507063034 | 10 | 5 | 0.0 | 6.4 | 0.00 | 0.00 | 0.00 | 84 | 1010.8 |
| 20260507061531 | 10 | 0 | 0.0 | 6.4 | 0.00 | 0.00 | 0.00 | 83 | 1010.4 |
| 20260507060028 | 10 | 0 | 0.0 | 6.4 | 0.00 | 0.00 | 0.00 | 82 | 1010.4 |
| 20260507054527 | 11 | 0 | 0.0 | 8.0 | 0.00 | 0.00 | 0.00 | 80 | 1010.8 |
| 20260507053027 | 11 | 309 | 0.0 | 6.4 | 0.00 | 0.00 | 0.00 | 76 | 1010.7 |
| 20260507051529 | 12 | 0 | 0.0 | 6.4 | 0.00 | 0.00 | 0.00 | 73 | 1009.8 |
| 20260507050030 | 12 | 0 | 0.0 | 4.8 | 0.00 | 0.00 | 0.00 | 72 | 1009.4 |
| 20260507044528 | 12 | 0 | 0.0 | 6.4 | 0.00 | 0.00 | 0.00 | 72 | 1009.3 |